sat.trackr.live / text

‹ back to catalog

STARLINK-38074

NORAD 69741 · 2026-150C

PAYLOAD ACTIVE UNKNOWN

§ Identity

Operator
Country
US
Launch date
2026-07-02
Launch site
AFWTR
Launch vehicle
Mass (kg)
RCS (m²)

Purposes: comms

External: N2YO · Heavens-Above · Gunter

§ Orbital elements

Epoch: 2026-09-20T00:09:59.567616Z

Period
93.91 min
Inclination
97.2828°
Eccentricity
0.0002413
Mean motion
15.33441707 rev/d
Perigee alt
463.9 km
Apogee alt
467.2 km
Semi-major
6,843.7 km
B*
3.7417e-4
RAAN
101.9923°
Arg perigee
82.2463°
Mean anomaly
277.9054°
Rev number
1,366

§ Raw data

STARLINK-380741 69741U 26150C   26263.00693944  .00012023  00000+0  37417-3 0  99972 69741  97.2828 101.9923 0002413  82.2463 277.9054 15.33441707 13660

JSON: /api/v1/satellites/69741 · /tle

For live sub-satellite position, see the globe view (requires WebGL).

§ Visibility from observer

Set your observer location to see the next 7 days of passes ≥ 10°. The values pass through the URL so the page stays shareable.

No JS? Fill the form by hand. The geolocation button needs JavaScript.